Wind_Speed
10 8 6 3 3 2 2 2 5 7 9 11 13 14 12 10 9 9 10 10 11 11 10 9 9 10 10 10 9 9 9 9 10 10 11 12 11 9 8 8 5 4 4
9 7 4 2 1 1 2 3 5 6 8 10 13 15 14 12 10 9 9 10 10 11 12 11 9 9 9 9 9 9 8 8 8 9 10 11 11 9 7 7 6 3 1
8 6 3 1 2 4 5 6 6 7 7 9 12 15 15 13 10 9 9 10 11 12 12 12 11 10 9 9 9 9 9 8 7 7 8 8 9 9 8 6 5 3 2
9 6 4 2 3 5 6 6 6 5 6 9 11 13 14 13 10 9 9 10 11 12 11 11 11 11 10 10 10 10 9 9 8 7 6 7 7 7 7 7 6 4 3
8 7 5 4 4 6 7 7 6 4 5 8 11 13 14 13 10 8 7 10 12 11 11 11 10 11 11 11 12 11 10 10 9 8 6 5 5 6 6 6 6 5 4
7 7 7 6 6 7 8 8 7 6 6 9 13 14 14 12 10 9 10 12 12 12 11 10 9 10 10 11 12 12 11 11 11 10 9 6 6 6 5 5 5 5 5
8 9 9 9 9 10 11 11 9 9 10 12 14 15 15 13 13 12 11 12 12 12 11 10 9 8 10 10 12 13 13 11 12 12 11 9 7 7 5 5 5 6 7
12 13 13 13 13 14 15 15 14 14 14 14 15 15 15 15 15 14 13 12 12 11 11 11 10 9 9 10 11 13 15 14 12 12 12 12 11 9 8 7 7 7 7
13 14 15 16 16 16 17 17 17 16 16 15 16 16 17 17 17 17 17 15 14 13 13 12 12 11 9 9 11 12 14 16 15 13 12 12 13 12 12 10 9 8 9
14 14 15 15 15 16 17 17 17 16 16 15 16 18 18 19 20 20 20 20 19 17 17 17 15 14 12 11 11 12 13 15 16 16 14 13 14 14 14 13 11 10 11
12 13 13 14 14 16 17 18 18 18 17 17 18 19 21 22 24 24 23 23 24 22 22 21 21 19 17 14 13 13 13 14 16 17 16 16 16 15 15 15 14 13 12
12 13 13 14 16 18 20 21 21 21 21 22 23 24 25 26 26 27 26 25 24 24 24 25 26 26 23 20 17 16 14 14 15 16 16 16 17 17 17 16 16 16 15
15 16 16 18 20 21 23 24 25 25 26 28 30 30 29 29 31 31 31 29 27 26 27 27 28 28 28 26 23 20 17 15 15 16 16 16 17 17 18 18 18 18 17
23 22 22 24 25 26 24 24 26 28 29 31 31 31 32 32 32 31 31 32 32 31 31 31 29 28 30 30 28 25 21 19 17 17 17 17 17 17 18 18 19 20 21
29 30 28 28 29 29 28 27 29 31 31 32 32 31 32 34 35 35 34 34 33 31 31 31 32 30 30 31 31 29 27 23 21 19 18 18 18 19 19 18 19 20 21
34 36 34 33 34 34 34 34 34 36 36 36 34 33 33 35 38 38 38 38 37 35 33 32 32 32 32 31 30 30 30 29 25 22 22 20 20 21 21 21 20 20 21
39 41 41 39 39 40 41 41 42 42 41 41 41 39 37 38 40 41 41 42 42 40 39 36 34 33 33 34 33 32 32 33 31 29 27 24 23 24 25 25 24 23 23
44 45 46 46 46 46 47 47 48 48 48 47 46 44 43 42 43 45 46 47 49 48 46 42 38 36 36 37 38 37 35 35 36 35 32 30 28 27 28 29 29 29 28
48 49 49 50 50 50 50 51 50 49 47 46 46 46 46 46 47 48 49 52 54 54 53 50 46 43 41 42 43 42 39 38 38 39 38 36 33 31 32 32 33 33 32
46 47 48 48 48 48 48 48 48 46 44 44 45 47 48 49 49 50 52 54 56 57 58 58 54 49 47 47 48 47 45 43 42 42 41 40 38 35 34 34 35 34 32
40 41 41 41 42 42 42 42 42 43 43 43 44 45 47 49 50 51 53 54 55 57 59 60 58 54 52 53 52 51 49 47 46 46 43 42 41 38 34 33 34 34 33
40 40 41 42 43 43 44 44 43 43 43 43 45 46 47 48 49 50 51 53 54 53 54 55 57 56 56 57 58 57 54 50 50 48 45 42 41 37 33 32 34 36 36
43 43 43 44 45 45 46 46 45 44 44 45 46 47 47 49 50 51 51 51 51 51 50 51 54 54 56 57 57 56 55 52 50 49 46 41 39 35 33 34 37 37 37
40 41 42 43 43 43 45 45 45 44 45 46 47 48 49 51 52 53 52 51 50 49 49 50 51 52 51 50 48 48 48 46 46 46 43 40 37 34 34 37 39 37 34
37 38 38 38 38 39 40 41 42 43 44 45 47 48 49 49 50 52 53 52 51 50 49 48 48 48 47 42 40 41 43 44 44 43 41 38 37 37 37 38 39 36 32
36 36 37 38 38 38 39 40 42 43 44 45 46 47 48 49 49 50 53 54 54 53 51 49 48 46 43 39 36 38 41 44 44 43 41 38 39 41 42 39 36 33 32
Wind_Direction
143 151 150 129 100 101 91 26 6 4 8 11 14 17 16 16 19 23 26 25 23 19 15 14 12 10 10 11 15 19 25 24 23 25 25 24 26 25 21 21 31 56 48
151 157 160 153 38 349 338 342 343 344 348 356 4 9 10 7 2 5 16 18 15 10 5 1 358 354 352 354 358 2 7 14 15 15 16 19 20 21 21 20 23 28 358
159 168 177 246 329 332 328 331 334 337 340 347 356 360 1 1 1 358 2 13 13 5 0 357 354 350 341 337 338 342 346 350 357 4 5 7 12 18 20 17 11 355 307
180 189 201 257 311 324 328 329 334 345 353 354 355 353 352 351 356 3 9 13 6 360 358 356 356 355 348 337 327 321 326 330 333 346 355 354 355 8 17 20 14 359 329
202 209 220 243 286 303 312 318 321 334 354 354 351 347 342 341 346 356 3 359 359 1 1 357 354 355 353 345 333 320 309 308 314 322 332 344 340 348 355 3 6 7 7
244 239 243 251 271 286 296 305 306 303 327 336 337 339 334 327 326 334 341 346 351 358 3 1 354 352 353 353 346 332 316 300 298 302 310 318 317 326 330 332 335 341 352
270 266 264 266 275 283 288 291 298 299 305 315 322 327 327 318 310 315 323 330 336 346 355 359 354 344 344 349 350 344 330 311 296 293 295 299 293 293 305 311 310 316 322
269 273 275 273 274 280 287 290 294 300 303 306 311 316 320 314 304 306 316 317 317 321 332 342 344 336 336 340 343 343 338 328 311 294 289 291 288 286 290 294 294 296 307
266 269 271 274 278 281 285 290 294 301 304 307 310 312 312 308 302 300 304 308 308 303 306 316 323 325 324 324 328 332 336 337 328 307 291 286 284 285 284 284 283 286 294
274 272 271 274 278 281 284 288 292 297 301 306 308 308 306 303 300 298 298 300 300 297 293 296 301 304 305 308 313 318 326 334 334 324 307 290 280 279 280 284 283 277 282
279 280 280 283 285 286 289 292 295 299 303 306 306 305 304 302 300 299 297 296 295 293 289 287 288 289 290 294 301 304 312 321 326 327 319 301 290 282 276 279 283 279 276
284 287 292 295 296 301 306 307 307 309 312 314 315 313 310 308 309 307 301 297 295 295 293 289 284 282 280 282 286 290 298 309 317 319 319 313 303 291 281 276 277 278 277
288 290 292 292 294 300 306 311 313 313 314 315 319 318 315 313 312 310 304 300 299 298 296 293 289 282 276 275 276 278 285 295 303 308 311 311 309 303 293 282 275 274 274
285 286 288 290 292 296 300 303 304 306 309 311 313 315 316 315 316 313 308 304 303 303 299 295 291 286 279 275 276 274 273 278 284 293 301 304 307 306 301 293 281 275 273
284 284 284 287 289 290 292 293 294 295 296 297 302 306 307 309 309 308 304 301 303 305 302 297 292 289 288 283 279 276 269 269 272 279 288 296 303 303 298 295 291 284 277
280 282 284 284 286 287 287 287 289 292 291 290 291 294 296 299 299 298 297 296 297 298 298 295 292 289 288 288 285 281 273 270 271 270 275 283 292 296 295 291 288 286 282
281 283 284 285 287 288 288 288 290 292 293 292 292 291 291 291 290 290 290 291 291 292 291 292 294 291 285 283 283 282 277 273 273 271 270 275 282 287 288 287 285 282 280
283 283 284 285 286 286 287 288 289 291 293 294 294 293 291 290 287 286 286 287 287 288 288 289 292 291 287 283 281 280 277 273 272 272 270 271 276 281 283 283 282 281 278
284 284 284 283 283 283 283 284 285 287 289 290 290 289 289 287 285 283 282 283 283 283 284 285 287 287 284 282 281 279 278 274 270 269 269 269 272 276 278 280 280 280 279
282 282 282 283 283 284 284 283 282 283 283 283 284 284 283 283 281 279 278 279 279 279 278 279 282 284 283 282 281 279 276 275 270 266 266 268 272 274 276 279 281 281 278
285 284 284 284 284 284 284 284 283 282 282 281 282 281 281 280 279 278 279 280 280 276 275 275 277 280 280 280 281 280 276 273 271 265 263 266 271 274 274 279 282 280 276
289 289 289 288 287 287 286 286 284 283 282 281 280 279 279 278 277 278 279 281 282 278 275 276 277 278 278 279 280 280 278 275 270 266 263 263 268 271 274 280 283 281 279
287 287 286 286 286 287 286 286 285 284 282 281 280 279 278 278 278 278 278 279 281 279 277 276 277 277 278 279 279 278 277 274 267 263 261 261 263 265 275 285 287 282 279
288 286 285 285 285 285 285 285 284 283 282 280 280 279 278 277 277 277 277 278 278 278 277 276 275 275 278 280 278 274 272 270 264 256 258 261 260 263 276 286 286 282 279
290 288 287 286 285 283 282 282 281 281 281 281 280 278 278 277 276 276 276 276 275 275 275 274 274 274 275 276 272 265 263 262 259 254 253 257 259 266 276 282 279 277 277
286 286 287 287 286 285 284 283 282 282 281 281 281 280 279 278 276 276 274 273 272 272 273 272 272 272 270 267 264 260 256 254 254 254 252 250 257 269 276 276 272 271 273
Height
5925 5925 5925 5926 5926 5925 5925 5925 5925 5924 5924 5923 5922 5921 5920 5918 5917 5916 5915 5914 5913 5912 5911 5910 5909 5908 5907 5906 5905 5904 5903 5902 5902 5901 5900 5900 5899 5899 5899 5899 5899 5899 5899
5926 5927 5927 5927 5927 5927 5927 5927 5926 5926 5925 5924 5923 5922 5921 5920 5918 5917 5916 5915 5914 5913 5912 5911 5909 5908 5908 5907 5906 5905 5905 5904 5903 5902 5901 5901 5900 5900 5899 5899 5899 5899 5899
5928 5928 5929 5929 5929 5929 5929 5928 5927 5927 5926 5925 5924 5923 5921 5920 5919 5918 5917 5916 5915 5914 5912 5911 5910 5909 5908 5907 5907 5906 5905 5905 5904 5903 5903 5902 5901 5901 5900 5900 5900 5900 5900
5927 5928 5929 5929 5929 5929 5929 5928 5927 5927 5926 5925 5924 5923 5922 5921 5919 5918 5918 5917 5916 5914 5912 5911 5910 5909 5908 5907 5907 5906 5906 5905 5904 5904 5904 5903 5902 5902 5902 5901 5901 5900 5900
5928 5928 5929 5929 5929 5929 5928 5928 5927 5926 5926 5925 5925 5924 5923 5921 5920 5919 5918 5917 5916 5914 5913 5912 5910 5909 5908 5907 5907 5906 5905 5905 5904 5904 5904 5904 5903 5902 5902 5902 5901 5900 5900
5929 5929 5929 5929 5928 5928 5927 5927 5927 5927 5926 5926 5925 5924 5923 5922 5921 5920 5919 5918 5916 5914 5913 5912 5911 5910 5908 5907 5906 5905 5904 5903 5903 5903 5903 5903 5902 5902 5902 5901 5901 5901 5900
5930 5929 5929 5928 5927 5927 5926 5926 5926 5926 5926 5926 5925 5924 5923 5922 5921 5920 5919 5918 5916 5915 5913 5912 5910 5909 5908 5907 5906 5905 5903 5902 5902 5902 5902 5902 5902 5901 5901 5901 5900 5900 5900
5930 5929 5928 5927 5926 5926 5926 5926 5926 5925 5925 5924 5924 5923 5922 5922 5921 5920 5919 5917 5916 5915 5913 5912 5910 5909 5908 5907 5906 5904 5903 5901 5900 5901 5901 5901 5901 5900 5900 5900 5900 5899 5899
5929 5928 5927 5926 5926 5925 5925 5925 5925 5924 5923 5923 5922 5922 5921 5921 5920 5919 5918 5916 5915 5914 5913 5911 5910 5909 5907 5906 5905 5904 5902 5901 5899 5898 5899 5899 5899 5899 5899 5899 5899 5899 5898
5928 5927 5927 5926 5925 5924 5924 5923 5923 5922 5921 5921 5921 5920 5919 5919 5918 5917 5916 5915 5914 5913 5912 5910 5909 5908 5907 5905 5904 5903 5901 5900 5899 5897 5897 5897 5896 5897 5897 5897 5898 5898 5898
5926 5926 5926 5925 5924 5923 5922 5922 5921 5920 5919 5919 5918 5918 5917 5916 5916 5915 5914 5913 5912 5911 5910 5909 5908 5907 5906 5904 5902 5901 5900 5899 5898 5896 5895 5894 5894 5894 5894 5895 5895 5895 5896
5924 5924 5924 5924 5923 5922 5921 5920 5919 5918 5917 5917 5916 5915 5914 5914 5913 5913 5911 5910 5909 5908 5907 5907 5906 5905 5904 5903 5901 5899 5898 5897 5896 5894 5893 5892 5891 5891 5891 5891 5892 5892 5893
5921 5921 5921 5920 5920 5919 5919 5917 5916 5915 5914 5913 5913 5912 5911 5911 5910 5910 5909 5907 5906 5905 5904 5903 5902 5901 5900 5900 5899 5898 5896 5895 5893 5892 5891 5890 5889 5889 5888 5888 5888 5889 5889
5917 5917 5917 5916 5915 5914 5913 5913 5911 5910 5909 5908 5908 5907 5906 5906 5905 5905 5904 5903 5902 5901 5900 5898 5897 5896 5895 5895 5895 5895 5894 5893 5891 5890 5889 5888 5887 5887 5886 5885 5884 5885 5885
5913 5912 5912 5912 5910 5909 5907 5907 5905 5904 5903 5902 5902 5901 5900 5900 5899 5899 5899 5897 5896 5895 5894 5893 5892 5892 5891 5890 5890 5890 5890 5889 5888 5887 5886 5885 5884 5883 5882 5881 5881 5880 5881
5908 5906 5906 5906 5904 5903 5902 5900 5899 5898 5896 5895 5895 5895 5894 5893 5893 5892 5892 5891 5890 5889 5888 5886 5885 5885 5885 5885 5884 5884 5885 5885 5885 5884 5882 5881 5880 5880 5879 5878 5877 5876 5876
5901 5899 5898 5898 5897 5896 5894 5893 5892 5890 5888 5887 5887 5886 5886 5886 5885 5883 5883 5883 5882 5881 5880 5879 5878 5878 5878 5878 5878 5878 5879 5880 5881 5880 5878 5877 5876 5875 5875 5874 5873 5872 5871
5893 5893 5891 5890 5889 5887 5885 5884 5883 5882 5881 5880 5878 5877 5877 5876 5876 5874 5873 5873 5873 5873 5873 5872 5871 5871 5870 5870 5870 5870 5871 5872 5874 5873 5872 5871 5870 5870 5869 5868 5868 5867 5866
5885 5884 5882 5881 5879 5878 5877 5876 5874 5873 5872 5870 5868 5867 5867 5867 5866 5865 5864 5863 5862 5862 5863 5863 5863 5862 5862 5861 5860 5861 5863 5864 5864 5865 5865 5864 5864 5863 5863 5863 5862 5862 5861
5875 5873 5872 5870 5869 5868 5867 5866 5864 5863 5862 5861 5860 5858 5857 5856 5856 5855 5854 5853 5852 5851 5851 5852 5852 5852 5852 5851 5850 5851 5852 5854 5855 5856 5857 5857 5856 5856 5855 5855 5855 5855 5855
5865 5863 5862 5861 5859 5858 5856 5855 5854 5853 5852 5851 5849 5848 5847 5845 5844 5843 5842 5841 5840 5839 5839 5839 5839 5839 5839 5839 5837 5838 5840 5843 5844 5845 5848 5849 5848 5848 5848 5848 5847 5848 5848
5855 5854 5853 5851 5849 5848 5846 5845 5843 5842 5841 5839 5838 5837 5836 5834 5833 5831 5830 5829 5827 5826 5827 5827 5827 5826 5826 5825 5824 5824 5825 5830 5832 5833 5837 5840 5840 5840 5840 5840 5839 5839 5839
5846 5844 5843 5841 5839 5837 5835 5833 5832 5830 5829 5828 5826 5825 5824 5823 5821 5820 5819 5818 5816 5815 5815 5816 5816 5814 5814 5813 5811 5810 5811 5815 5818 5822 5825 5829 5831 5832 5832 5831 5831 5830 5829
5836 5834 5832 5831 5830 5827 5825 5823 5821 5820 5819 5817 5815 5814 5813 5812 5810 5809 5808 5807 5806 5804 5804 5804 5804 5804 5803 5801 5799 5798 5800 5802 5806 5811 5815 5818 5821 5823 5823 5822 5821 5821 5821
5827 5824 5823 5822 5821 5819 5817 5814 5813 5811 5809 5807 5805 5803 5801 5800 5798 5797 5796 5796 5795 5794 5793 5792 5792 5793 5792 5791 5790 5790 5791 5794 5797 5802 5807 5809 5811 5813 5814 5814 5813 5813 5813
5820 5818 5816 5814 5812 5810 5808 5806 5803 5801 5799 5796 5793 5791 5789 5787 5786 5785 5783 5783 5782 5782 5782 5782 5782 5782 5782 5782 5782 5782 5783 5786 5789 5792 5797 5800 5802 5802 5804 5806 5806 5806 5806